Date String (YYYY-MM-DD hh:mm:ss) UTC,Instrument flags,Ambient pressure (hPa),Sample flow (lpm),Bypass flow (lpm),Sample temperature (°C),Ambient temperature (°C),ASC tube jacket temperature (°C),LED temperature (°C),Box temperature (°C),Sample RH (%),Span deviation,Mass concentration (μg/m³),Mass concentration (μg/m³),Mass concentration (μg/m³)
DateTimeUTC,F1_M11,P_M11,Q1_M11,Q2_M11,T1_M11,T2_M11,T3_M11,T4_M11,T5_M11,U1_M11,ZSPAN_M11,X0_M11,X2_M11,X1_M11
2021-11-07 18:00:00,,0824.9,5.00,0.00,30.1,29.3,00.0,39.0,32.0,06.0,0000.0,0003.20,0001.58,0001.28
2021-11-07 18:01:00,,0824.8,5.01,0.00,30.2,29.0,00.0,39.0,32.0,06.0,0000.0,0003.23,0001.59,0001.28
2021-11-07 18:02:00,,0824.8,5.01,0.00,30.1,27.1,00.0,39.0,31.6,06.1,0000.0,0003.16,0001.58,0001.28
2021-11-07 18:03:00,,0824.8,5.00,0.00,30.0,26.1,00.0,39.0,31.4,06.2,0000.0,0003.91,0001.58,0001.29
2021-11-07 18:04:00,,0824.7,5.00,0.00,29.9,26.4,00.0,38.9,31.4,06.4,0000.0,0004.32,0001.60,0001.30
2021-11-07 18:05:00,,0824.6,5.00,0.00,29.8,26.9,00.0,38.9,31.3,06.4,0000.0,0004.35,0001.58,0001.30
2021-11-07 18:06:00,,0824.6,5.00,0.00,29.8,27.3,00.0,38.8,31.3,06.4,0000.0,0004.69,0001.57,0001.30
2021-11-07 18:07:00,,0824.6,5.00,0.00,29.8,27.7,00.0,38.8,31.4,06.4,0000.0,0004.82,0001.62,0001.30
2021-11-07 18:08:00,,0824.8,5.00,0.00,29.8,28.0,00.0,38.8,31.5,06.5,0000.0,0004.85,0001.63,0001.30
2021-11-07 18:09:00,,0824.6,5.00,0.00,29.8,28.3,00.0,38.8,31.6,06.4,0000.0,0004.31,0001.62,0001.31
2021-11-07 18:10:00,,0824.6,4.99,0.00,29.9,28.5,00.0,38.8,31.7,06.2,0000.0,0003.87,0001.64,0001.32
2021-11-07 18:11:00,,0824.6,5.00,0.00,29.9,28.7,00.0,38.8,31.7,06.1,0000.0,0003.88,0001.64,0001.31
2021-11-07 18:12:00,,0824.6,5.01,0.00,29.9,28.9,00.0,38.8,31.8,06.1,0000.0,0003.84,0001.63,0001.30
2021-11-07 18:13:00,,0824.6,5.00,0.00,30.0,29.0,00.0,38.9,31.8,06.1,0000.0,0003.79,0001.61,0001.29
2021-11-07 18:14:00,,0824.6,5.00,0.00,30.0,29.1,00.0,38.9,31.9,06.1,0000.0,0003.28,0001.58,0001.28
2021-11-07 18:15:00,,0824.7,4.99,0.00,30.1,29.2,00.0,38.9,31.9,06.1,0000.0,0002.63,0001.54,0001.26
2021-11-07 18:16:00,,0824.6,5.00,0.00,30.1,28.9,00.0,38.9,31.9,06.0,0000.0,0002.75,0001.56,0001.25
2021-11-07 18:17:00,,0824.6,4.99,0.00,30.0,27.1,00.0,38.9,31.5,06.1,0000.0,0002.37,0001.55,0001.24
2021-11-07 18:18:00,,0824.5,5.01,0.00,29.9,26.2,00.0,38.9,31.3,06.2,0000.0,0002.39,0001.53,0001.24
2021-11-07 18:19:00,,0824.4,5.01,0.00,29.8,26.5,00.0,38.9,31.3,06.2,0000.0,0003.03,0001.51,0001.23
2021-11-07 18:20:00,,0824.3,4.99,0.00,29.7,26.9,00.0,38.8,31.3,06.0,0000.0,0003.21,0001.49,0001.20
2021-11-07 18:21:00,,0824.4,5.01,0.00,29.7,27.3,00.0,38.8,31.3,06.1,0000.0,0003.11,0001.44,0001.18
2021-11-07 18:22:00,,0824.4,4.98,0.00,29.7,27.7,00.0,38.8,31.4,06.2,0000.0,0003.06,0001.42,0001.17
2021-11-07 18:23:00,,0824.4,5.02,0.00,29.8,28.1,00.0,38.8,31.5,05.9,0000.0,0003.06,0001.40,0001.16
2021-11-07 18:24:00,,0824.5,4.99,0.00,29.8,28.3,00.0,38.8,31.5,05.9,0000.0,0003.07,0001.40,0001.14
2021-11-07 18:25:00,,0824.4,5.00,0.00,29.8,28.6,00.0,38.8,31.6,06.1,0000.0,0003.08,0001.41,0001.13
2021-11-07 18:26:00,,0824.4,5.00,0.00,29.9,28.8,00.0,38.8,31.7,06.1,0000.0,0003.12,0001.42,0001.13
2021-11-07 18:27:00,,0824.4,4.99,0.00,29.9,28.9,00.0,38.8,31.7,06.1,0000.0,0003.16,0001.44,0001.14
2021-11-07 18:28:00,,0824.4,5.00,0.00,30.0,29.0,00.0,38.8,31.7,05.8,0000.0,0003.22,0001.46,0001.13
2021-11-07 18:29:00,,0824.4,5.00,0.00,30.0,29.1,00.0,38.8,31.8,05.7,0000.0,0003.19,0001.43,0001.07
2021-11-07 18:30:00,,0824.4,5.00,0.00,30.0,29.1,00.0,38.9,31.9,05.7,0000.0,0002.65,0001.37,0001.02
2021-11-07 18:31:00,,0824.3,5.00,0.00,30.0,27.8,00.0,38.9,31.6,05.8,0000.0,0002.17,0001.33,0000.98
2021-11-07 18:32:00,,0824.2,5.01,0.00,29.9,26.1,00.0,38.8,31.2,05.9,0000.0,0002.15,0001.30,0000.95
2021-11-07 18:33:00,,0824.2,5.00,0.00,29.8,26.2,00.0,38.8,31.2,05.9,0000.0,0002.25,0001.31,0000.93
2021-11-07 18:34:00,,0824.3,5.00,0.00,29.7,26.7,00.0,38.8,31.2,05.9,0000.0,0002.31,0001.28,0000.90
2021-11-07 18:35:00,,0824.2,5.00,0.00,29.7,27.1,00.0,38.7,31.2,05.8,0000.0,0003.28,0001.28,0000.87
2021-11-07 18:36:00,,0824.2,4.99,0.00,29.7,27.5,00.0,38.7,31.3,05.8,0000.0,0003.27,0001.25,0000.85
2021-11-07 18:37:00,,0824.2,5.01,0.00,29.7,27.9,00.0,38.7,31.3,05.8,0000.0,0003.05,0001.17,0000.80
2021-11-07 18:38:00,,0824.2,5.00,0.00,29.7,28.1,00.0,38.7,31.4,05.8,0000.0,0002.82,0001.09,0000.75
2021-11-07 18:39:00,,0824.2,5.00,0.00,29.7,28.4,00.0,38.7,31.5,05.9,0000.0,0002.71,0001.03,0000.74
2021-11-07 18:40:00,,0824.2,5.00,0.00,29.8,28.5,00.0,38.7,31.5,06.0,0000.0,0002.61,0000.98,0000.74
2021-11-07 18:41:00,,0824.1,5.01,0.00,29.8,28.7,00.0,38.7,31.6,05.9,0000.0,0002.60,0001.00,0000.75
2021-11-07 18:42:00,,0824.1,4.99,0.00,29.8,28.8,00.0,38.7,31.6,05.8,0000.0,0002.60,0001.00,0000.75
2021-11-07 18:43:00,,0824.1,5.00,0.00,29.9,28.9,00.0,38.8,31.7,05.8,0000.0,0002.64,0001.01,0000.76
2021-11-07 18:44:00,,0824.1,5.01,0.00,29.9,28.9,00.0,38.8,31.7,05.8,0000.0,0002.56,0001.00,0000.76
2021-11-07 18:45:00,,0824.1,5.00,0.00,29.9,28.4,00.0,38.8,31.6,05.8,0000.0,0002.61,0001.00,0000.76
2021-11-07 18:46:00,,0824.1,5.00,0.00,29.8,26.4,00.0,38.8,31.2,05.9,0000.0,0001.89,0001.00,0000.77
2021-11-07 18:47:00,,0824.1,5.00,0.00,29.7,25.9,00.0,38.8,31.1,05.9,0000.0,0001.53,0000.98,0000.78
2021-11-07 18:48:00,,0824.0,5.00,0.00,29.7,26.3,00.0,38.7,31.2,06.1,0000.0,0001.59,0001.00,0000.78
2021-11-07 18:49:00,,0824.0,4.99,0.00,29.6,26.8,00.0,38.7,31.1,06.0,0000.0,0001.58,0001.00,0000.78
2021-11-07 18:50:00,,0823.9,5.01,0.00,29.6,27.2,00.0,38.6,31.2,06.1,0000.0,0001.53,0000.98,0000.78
2021-11-07 18:51:00,,0823.8,4.99,0.00,29.6,27.6,00.0,38.6,31.2,06.0,0000.0,0001.51,0000.98,0000.79
2021-11-07 18:52:00,,0823.7,5.01,0.00,29.6,27.9,00.0,38.6,31.3,05.9,0000.0,0001.82,0001.01,0000.79
2021-11-07 18:53:00,,0823.8,4.99,0.00,29.6,28.1,00.0,38.6,31.3,05.9,0000.0,0002.03,0001.03,0000.79
2021-11-07 18:54:00,,0823.8,4.99,0.00,29.6,28.3,00.0,38.6,31.4,05.9,0000.0,0002.14,0001.05,0000.80
2021-11-07 18:55:00,,0823.9,5.00,0.00,29.7,28.4,00.0,38.6,31.4,06.0,0000.0,0002.17,0001.05,0000.80
2021-11-07 18:56:00,,0823.8,5.01,0.00,29.7,28.6,00.0,38.6,31.5,06.1,0000.0,0002.35,0001.04,0000.79
2021-11-07 18:57:00,,0823.8,5.00,0.00,29.8,28.7,00.0,38.7,31.5,06.0,0000.0,0002.41,0001.03,0000.79
2021-11-07 18:58:00,,0823.7,5.00,0.00,29.8,28.9,00.0,38.7,31.6,05.9,0000.0,0002.41,0001.03,0000.79
2021-11-07 18:59:00,,0823.8,5.00,0.00,29.8,29.0,00.0,38.7,31.7,06.0,0000.0,0002.37,0001.04,0000.80
